カタログに戻る

FENGYUN 1C DEB

運用中PO
NORAD 30163·DEBRIS·🇨🇳 China

打ち上げ May 10, 1999 から Taiyuan Satellite Launch Center

Loading…

次のパス (今後24時間)

TLE

最新Source: Space-Track

元期: Sep 14, 2026, 05:00 UTC

1 30163U 99025TU  26257.20846531  .00001056  00000-0  13659-2 0  9997
2 30163  98.7038 338.7985 0368586 257.9579 124.9336 13.39408733956327

AllMySatでFENGYUN 1C DEBをリアルタイム追跡

Download on the App Store